BAW253 MYNN-MBPV

Flight info

Callsign BAW253
Flight time 0h 53m
Altitude 33000
Route BOSAR DCT SOLEI
Aircraft B772/H-SDE1E3FGHIJ3J5J6M1M2P2RWXYZ/LB1D1

Departure

Time 2026-05-06 09:32
Airport Lynden Pindling International Airport (MYNN)

Arrival

Time 2026-05-06 10:25
Airport Providenciales International Airport (MBPV)
Time Latitude Longitude Altitude Speed Heading
2026-05-06 09:03 25.04867 -77.46827 22 ft 0 kts 146°
2026-05-06 09:23 25.04868 -77.46827 21 ft 1 kts 146°
2026-05-06 09:23 25.04887 -77.46842 25 ft 4 kts 148°
2026-05-06 09:24 25.04910 -77.46857 23 ft 4 kts 155°
2026-05-06 09:24 25.04932 -77.46865 25 ft 4 kts 187°
2026-05-06 09:24 25.04943 -77.46863 25 ft 2 kts 244°
2026-05-06 09:24 25.04944 -77.46861 25 ft 0 kts 245°
2026-05-06 09:27 25.04929 -77.46896 26 ft 7 kts 245°
2026-05-06 09:27 25.04903 -77.46945 26 ft 7 kts 229°
2026-05-06 09:28 25.04897 -77.46993 26 ft 7 kts 298°
2026-05-06 09:28 25.04931 -77.47034 26 ft 7 kts 315°
2026-05-06 09:28 25.04968 -77.47074 25 ft 7 kts 315°
2026-05-06 09:28 25.05003 -77.47114 25 ft 7 kts 314°
2026-05-06 09:29 25.05039 -77.47155 26 ft 7 kts 314°
2026-05-06 09:29 25.05075 -77.47195 26 ft 7 kts 314°
2026-05-06 09:29 25.05111 -77.47236 27 ft 7 kts 314°
2026-05-06 09:29 25.05147 -77.47276 26 ft 7 kts 315°
2026-05-06 09:30 25.05183 -77.47316 24 ft 7 kts 315°
2026-05-06 09:30 25.05214 -77.47360 26 ft 7 kts 297°
2026-05-06 09:30 25.05219 -77.47415 23 ft 7 kts 259°
2026-05-06 09:30 25.05204 -77.47469 27 ft 7 kts 251°
2026-05-06 09:31 25.05184 -77.47520 30 ft 7 kts 238°
2026-05-06 09:31 25.05153 -77.47536 31 ft 4 kts 162°
2026-05-06 09:31 25.05136 -77.47517 29 ft 1 kts 136°
2026-05-06 09:31 25.05128 -77.47509 29 ft 2 kts 136°
2026-05-06 09:32 25.05074 -77.47451 27 ft 31 kts 135°
2026-05-06 09:32 25.04697 -77.47031 28 ft 121 kts 135°
2026-05-06 09:32 25.03923 -77.46177 181 ft 181 kts 135°
2026-05-06 09:32 25.02991 -77.45184 1091 ft 193 kts 136°
2026-05-06 09:33 25.02004 -77.44091 1813 ft 213 kts 135°
2026-05-06 09:33 25.00896 -77.42840 2200 ft 241 kts 135°
2026-05-06 09:33 24.99700 -77.41474 2927 ft 253 kts 134°
2026-05-06 09:33 24.98526 -77.39963 3626 ft 266 kts 127°
2026-05-06 09:34 24.97488 -77.38275 4403 ft 274 kts 125°
2026-05-06 09:34 24.96412 -77.36514 5263 ft 279 kts 126°
2026-05-06 09:34 24.95308 -77.34747 6166 ft 281 kts 126°
2026-05-06 09:34 24.94188 -77.32968 6971 ft 285 kts 126°
2026-05-06 09:35 24.93046 -77.31158 7727 ft 290 kts 126°
2026-05-06 09:35 24.91880 -77.29315 8479 ft 295 kts 126°
2026-05-06 09:35 24.90696 -77.27444 9226 ft 299 kts 126°
2026-05-06 09:35 24.89498 -77.25553 9954 ft 303 kts 126°
2026-05-06 09:36 24.88281 -77.23633 10374 ft 318 kts 126°
2026-05-06 09:36 24.86959 -77.21550 10546 ft 341 kts 126°
2026-05-06 09:36 24.85551 -77.19333 10813 ft 362 kts 126°
2026-05-06 09:36 24.84101 -77.17049 11167 ft 372 kts 126°
2026-05-06 09:37 24.82609 -77.14697 11521 ft 375 kts 126°
2026-05-06 09:37 24.81107 -77.12330 11873 ft 377 kts 126°
2026-05-06 09:37 24.79603 -77.09961 12250 ft 379 kts 126°
2026-05-06 09:37 24.78089 -77.07579 12617 ft 381 kts 126°
2026-05-06 09:38 24.76564 -77.05182 12994 ft 383 kts 126°
2026-05-06 09:38 24.75027 -77.02767 13374 ft 386 kts 126°
2026-05-06 09:38 24.73483 -77.00342 13755 ft 389 kts 126°
2026-05-06 09:38 24.71941 -76.97922 14094 ft 392 kts 126°
2026-05-06 09:39 24.70369 -76.95454 14447 ft 394 kts 126°
2026-05-06 09:39 24.68791 -76.92979 14794 ft 397 kts 126°
2026-05-06 09:39 24.67203 -76.90488 15144 ft 399 kts 126°
2026-05-06 09:39 24.65605 -76.87985 15496 ft 401 kts 126°
2026-05-06 09:40 24.64000 -76.85473 15853 ft 402 kts 126°
2026-05-06 09:40 24.62356 -76.82972 16213 ft 404 kts 127°
2026-05-06 09:40 24.58904 -76.78090 16960 ft 409 kts 129°
2026-05-06 09:41 24.57135 -76.75632 17328 ft 411 kts 129°
2026-05-06 09:41 24.55356 -76.73155 17696 ft 414 kts 128°
2026-05-06 09:41 24.53568 -76.70656 18099 ft 416 kts 128°
2026-05-06 09:41 24.51777 -76.68145 18458 ft 419 kts 128°
2026-05-06 09:42 24.49978 -76.65615 18800 ft 422 kts 128°
2026-05-06 09:42 24.48166 -76.63063 19139 ft 425 kts 128°
2026-05-06 09:42 24.46341 -76.60493 19479 ft 429 kts 128°
2026-05-06 09:42 24.44501 -76.57900 19829 ft 433 kts 128°
2026-05-06 09:43 24.42642 -76.55283 20184 ft 436 kts 128°
2026-05-06 09:43 24.40764 -76.52639 20536 ft 440 kts 128°
2026-05-06 09:43 24.38869 -76.49974 20887 ft 444 kts 128°
2026-05-06 09:43 24.36960 -76.47290 21255 ft 448 kts 128°
2026-05-06 09:44 24.35036 -76.44587 21626 ft 451 kts 128°
2026-05-06 09:44 24.33095 -76.41862 21991 ft 455 kts 128°
2026-05-06 09:44 24.31143 -76.39122 22375 ft 458 kts 127°
2026-05-06 09:44 24.29176 -76.36364 22753 ft 461 kts 127°
2026-05-06 09:45 24.27219 -76.33620 23132 ft 464 kts 127°
2026-05-06 09:45 24.25217 -76.30816 23516 ft 468 kts 127°
2026-05-06 09:45 24.23197 -76.27987 23872 ft 473 kts 127°
2026-05-06 09:45 24.21159 -76.25135 24208 ft 477 kts 127°
2026-05-06 09:46 24.19101 -76.22257 24545 ft 482 kts 127°
2026-05-06 09:46 24.17026 -76.19355 24885 ft 486 kts 127°
2026-05-06 09:46 24.14930 -76.16428 25231 ft 489 kts 127°
2026-05-06 09:46 24.12826 -76.13491 25585 ft 492 kts 127°
2026-05-06 09:47 24.10738 -76.10577 25927 ft 494 kts 127°
2026-05-06 09:47 24.08608 -76.07608 26275 ft 497 kts 127°
2026-05-06 09:47 24.06466 -76.04622 26630 ft 499 kts 127°
2026-05-06 09:47 24.04310 -76.01620 26995 ft 502 kts 127°
2026-05-06 09:48 24.02150 -75.98614 27359 ft 504 kts 127°
2026-05-06 09:48 23.99973 -75.95586 27728 ft 507 kts 126°
2026-05-06 09:48 23.97782 -75.92540 28113 ft 509 kts 126°
2026-05-06 09:48 23.95581 -75.89481 28494 ft 512 kts 126°
2026-05-06 09:49 23.93371 -75.86413 28881 ft 515 kts 126°
2026-05-06 09:49 23.91171 -75.83361 29274 ft 519 kts 126°
2026-05-06 09:49 23.88926 -75.80246 29676 ft 523 kts 126°
2026-05-06 09:49 23.86666 -75.77114 30083 ft 526 kts 126°
2026-05-06 09:50 23.84387 -75.73957 30434 ft 530 kts 126°
2026-05-06 09:50 23.82097 -75.70788 30794 ft 533 kts 126°
2026-05-06 09:50 23.79786 -75.67591 31139 ft 536 kts 126°
2026-05-06 09:50 23.77500 -75.64431 31488 ft 539 kts 126°
2026-05-06 09:51 23.75172 -75.61215 31845 ft 541 kts 126°
2026-05-06 09:51 23.72830 -75.57983 32217 ft 543 kts 126°
2026-05-06 09:51 23.70484 -75.54747 32585 ft 544 kts 126°
2026-05-06 09:51 23.68126 -75.51496 32944 ft 546 kts 125°
2026-05-06 09:52 23.63346 -75.44908 33056 ft 559 kts 125°
2026-05-06 09:52 23.58524 -75.38278 33043 ft 554 kts 126°
2026-05-06 09:53 23.53738 -75.31708 33052 ft 553 kts 126°
2026-05-06 09:53 23.48953 -75.25142 33053 ft 553 kts 126°
2026-05-06 09:54 23.44187 -75.18611 33049 ft 554 kts 126°
2026-05-06 09:54 23.39383 -75.12036 33050 ft 554 kts 126°
2026-05-06 09:55 23.34580 -75.05473 33049 ft 555 kts 126°
2026-05-06 09:55 23.29768 -74.98905 33050 ft 554 kts 126°
2026-05-06 09:56 23.24954 -74.92343 33050 ft 554 kts 126°
2026-05-06 09:56 23.20141 -74.85791 33046 ft 554 kts 126°
2026-05-06 09:57 23.15358 -74.79288 33049 ft 553 kts 126°
2026-05-06 09:57 23.10551 -74.72760 33048 ft 553 kts 126°
2026-05-06 09:58 23.05737 -74.66232 33047 ft 553 kts 126°
2026-05-06 09:58 23.00932 -74.59722 33050 ft 552 kts 126°
2026-05-06 09:59 22.96146 -74.53248 33048 ft 552 kts 126°
2026-05-06 09:59 22.91329 -74.46740 33050 ft 552 kts 126°
2026-05-06 10:00 22.88956 -74.43541 33030 ft 535 kts 126°
2026-05-06 10:00 22.86651 -74.40441 32976 ft 520 kts 126°
2026-05-06 10:00 22.84405 -74.37419 32902 ft 508 kts 126°
2026-05-06 10:00 22.82203 -74.34455 32806 ft 497 kts 126°
2026-05-06 10:01 22.80053 -74.31559 32677 ft 489 kts 126°
2026-05-06 10:01 22.77958 -74.28736 32457 ft 484 kts 126°
2026-05-06 10:01 22.75851 -74.25897 32133 ft 482 kts 126°
2026-05-06 10:01 22.73746 -74.23063 31779 ft 480 kts 126°
2026-05-06 10:02 22.71650 -74.20242 31437 ft 479 kts 127°
2026-05-06 10:02 22.69592 -74.17477 31127 ft 475 kts 127°
2026-05-06 10:02 22.67533 -74.14713 30738 ft 469 kts 127°
2026-05-06 10:02 22.65491 -74.11973 30316 ft 465 kts 128°
2026-05-06 10:03 22.63469 -74.09262 29841 ft 461 kts 128°
2026-05-06 10:03 22.61459 -74.06568 29335 ft 458 kts 128°
2026-05-06 10:03 22.59462 -74.03893 28847 ft 454 kts 128°
2026-05-06 10:03 22.57482 -74.01244 28384 ft 451 kts 128°
2026-05-06 10:04 22.55520 -73.98618 27926 ft 447 kts 129°
2026-05-06 10:04 22.53568 -73.96008 27479 ft 444 kts 129°
2026-05-06 10:04 22.51628 -73.93415 27028 ft 441 kts 129°
2026-05-06 10:04 22.49706 -73.90846 26597 ft 438 kts 129°
2026-05-06 10:05 22.48436 -73.89150 26315 ft 436 kts 129°
2026-05-06 10:05 22.45893 -73.85754 25732 ft 433 kts 129°
2026-05-06 10:05 22.44023 -73.83259 25301 ft 431 kts 129°
2026-05-06 10:05 22.42140 -73.80749 24878 ft 429 kts 130°
2026-05-06 10:06 22.40266 -73.78250 24433 ft 427 kts 130°
2026-05-06 10:06 22.38399 -73.75763 24024 ft 425 kts 130°
2026-05-06 10:06 22.37166 -73.74121 23737 ft 424 kts 130°
2026-05-06 10:06 22.35314 -73.71656 23279 ft 422 kts 130°
2026-05-06 10:07 22.33467 -73.69198 22817 ft 419 kts 130°
2026-05-06 10:07 22.31635 -73.66761 22386 ft 416 kts 130°
2026-05-06 10:07 22.29810 -73.64334 21968 ft 413 kts 130°
2026-05-06 10:07 22.28002 -73.61932 21553 ft 411 kts 130°
2026-05-06 10:08 22.26202 -73.59541 21139 ft 408 kts 131°
2026-05-06 10:08 22.24412 -73.57165 20732 ft 406 kts 131°
2026-05-06 10:08 22.22649 -73.54826 20320 ft 405 kts 131°
2026-05-06 10:08 22.20875 -73.52473 19911 ft 403 kts 131°
2026-05-06 10:09 22.19107 -73.50129 19482 ft 402 kts 131°
2026-05-06 10:09 22.17345 -73.47794 19047 ft 401 kts 131°
2026-05-06 10:09 22.15584 -73.45462 18632 ft 400 kts 131°
2026-05-06 10:09 22.13825 -73.43133 18171 ft 400 kts 131°
2026-05-06 10:10 22.12070 -73.40811 17697 ft 398 kts 131°
2026-05-06 10:10 22.10319 -73.38495 17251 ft 396 kts 131°
2026-05-06 10:10 22.08582 -73.36197 16824 ft 393 kts 131°
2026-05-06 10:10 22.06880 -73.33948 16380 ft 391 kts 131°
2026-05-06 10:11 22.05162 -73.31678 15956 ft 389 kts 131°
2026-05-06 10:11 22.03454 -73.29422 15533 ft 387 kts 131°
2026-05-06 10:11 22.01753 -73.27176 15090 ft 385 kts 131°
2026-05-06 10:11 22.00064 -73.24948 14656 ft 383 kts 131°
2026-05-06 10:12 21.98380 -73.22727 14212 ft 382 kts 131°
2026-05-06 10:12 21.96704 -73.20517 13770 ft 380 kts 130°
2026-05-06 10:12 21.95034 -73.18316 13294 ft 378 kts 130°
2026-05-06 10:12 21.93374 -73.16128 12833 ft 375 kts 130°
2026-05-06 10:13 21.91726 -73.13957 12397 ft 373 kts 130°
2026-05-06 10:13 21.90111 -73.11831 11960 ft 370 kts 130°
2026-05-06 10:13 21.88486 -73.09692 11544 ft 367 kts 130°
2026-05-06 10:13 21.86874 -73.07572 11125 ft 365 kts 130°
2026-05-06 10:14 21.85271 -73.05463 10709 ft 362 kts 130°
2026-05-06 10:14 21.83679 -73.03371 10329 ft 358 kts 130°
2026-05-06 10:14 21.82280 -73.01250 10141 ft 339 kts 117°
2026-05-06 10:14 21.81644 -72.98877 10077 ft 324 kts 97°
2026-05-06 10:15 21.81473 -72.96513 9951 ft 311 kts 94°
2026-05-06 10:15 21.81337 -72.94216 9734 ft 304 kts 94°
2026-05-06 10:15 21.81209 -72.91988 9432 ft 301 kts 94°
2026-05-06 10:15 21.81080 -72.89748 9079 ft 299 kts 94°
2026-05-06 10:16 21.80948 -72.87516 8737 ft 298 kts 94°
2026-05-06 10:16 21.80815 -72.85298 8410 ft 296 kts 94°
2026-05-06 10:16 21.80680 -72.83096 8099 ft 293 kts 94°
2026-05-06 10:16 21.80546 -72.80942 7803 ft 291 kts 94°
2026-05-06 10:17 21.80411 -72.78779 7494 ft 289 kts 95°
2026-05-06 10:17 21.80276 -72.76632 7202 ft 286 kts 94°
2026-05-06 10:17 21.80142 -72.74504 6918 ft 283 kts 94°
2026-05-06 10:17 21.80008 -72.72398 6645 ft 281 kts 94°
2026-05-06 10:18 21.79875 -72.70313 6363 ft 278 kts 94°
2026-05-06 10:18 21.79743 -72.68244 6048 ft 276 kts 94°
2026-05-06 10:18 21.79611 -72.66185 5743 ft 275 kts 94°
2026-05-06 10:18 21.79480 -72.64143 5450 ft 273 kts 94°
2026-05-06 10:19 21.79350 -72.62114 5145 ft 271 kts 94°
2026-05-06 10:19 21.79220 -72.60096 4856 ft 269 kts 94°
2026-05-06 10:19 21.79091 -72.58093 4549 ft 267 kts 94°
2026-05-06 10:19 21.78964 -72.56110 4285 ft 264 kts 94°
2026-05-06 10:20 21.78837 -72.54139 3991 ft 263 kts 95°
2026-05-06 10:20 21.78710 -72.52177 3646 ft 262 kts 95°
2026-05-06 10:20 21.78583 -72.50212 3278 ft 262 kts 95°
2026-05-06 10:20 21.78458 -72.48294 3039 ft 258 kts 95°
2026-05-06 10:21 21.78333 -72.46388 2781 ft 250 kts 95°
2026-05-06 10:21 21.78238 -72.44589 2511 ft 231 kts 95°
2026-05-06 10:21 21.78160 -72.42924 2255 ft 214 kts 95°
2026-05-06 10:21 21.78088 -72.41408 2131 ft 189 kts 95°
2026-05-06 10:22 21.78025 -72.40075 1955 ft 169 kts 95°
2026-05-06 10:22 21.77966 -72.38874 1797 ft 154 kts 95°
2026-05-06 10:22 21.77914 -72.37787 1756 ft 141 kts 95°
2026-05-06 10:22 21.77862 -72.36745 1592 ft 140 kts 95°
2026-05-06 10:23 21.77810 -72.35695 1417 ft 141 kts 94°
2026-05-06 10:23 21.77761 -72.34658 1249 ft 136 kts 95°
2026-05-06 10:23 21.77708 -72.33651 1070 ft 134 kts 94°
2026-05-06 10:23 21.77659 -72.32632 904 ft 138 kts 94°
2026-05-06 10:24 21.77635 -72.31617 688 ft 132 kts 94°
2026-05-06 10:24 21.77562 -72.30634 489 ft 131 kts 96°
2026-05-06 10:24 21.77508 -72.29668 356 ft 130 kts 91°
2026-05-06 10:24 21.77467 -72.28689 175 ft 132 kts 95°
2026-05-06 10:25 21.77413 -72.27689 49 ft 132 kts 95°
2026-05-06 10:25 21.77370 -72.26826 42 ft 98 kts 92°
2026-05-06 10:25 21.77343 -72.26257 41 ft 54 kts 92°
2026-05-06 10:25 21.77330 -72.25973 42 ft 31 kts 93°
2026-05-06 10:26 21.77319 -72.25746 40 ft 30 kts 93°
2026-05-06 10:26 21.77312 -72.25606 41 ft 7 kts 89°
2026-05-06 10:26 21.77335 -72.25567 41 ft 5 kts 57°
2026-05-06 10:26 21.77323 -72.25545 42 ft 3 kts 166°
2026-05-06 10:27 21.77310 -72.25567 41 ft 5 kts 259°
2026-05-06 10:27 21.77313 -72.25652 40 ft 19 kts 273°
2026-05-06 10:27 21.77322 -72.25837 40 ft 28 kts 273°
2026-05-06 10:27 21.77333 -72.26050 42 ft 28 kts 273°
2026-05-06 10:28 21.77342 -72.26262 41 ft 28 kts 272°
2026-05-06 10:28 21.77353 -72.26475 42 ft 28 kts 272°
2026-05-06 10:28 21.77363 -72.26687 41 ft 28 kts 273°
2026-05-06 10:28 21.77373 -72.26900 42 ft 28 kts 273°
2026-05-06 10:29 21.77384 -72.27112 42 ft 28 kts 273°
2026-05-06 10:29 21.77395 -72.27325 42 ft 28 kts 273°
2026-05-06 10:29 21.77402 -72.27450 43 ft 7 kts 283°
2026-05-06 10:29 21.77438 -72.27466 43 ft 6 kts
2026-05-06 10:30 21.77481 -72.27464 44 ft 6 kts
2026-05-06 10:30 21.77517 -72.27454 45 ft 5 kts 40°
2026-05-06 10:30 21.77527 -72.27419 46 ft 5 kts 69°
2026-05-06 10:30 21.77552 -72.27395 46 ft 5 kts 33°
2026-05-06 10:31 21.77581 -72.27375 47 ft 5 kts 33°
2026-05-06 10:31 21.77600 -72.27361 47 ft 0 kts 33°